Overview Statistics Trail Chart Weather Telemetry Raw packets
 

This is the latest recevied weather packets stored in our database for station/object K1NOT-WX. If no packets are shown the sender has not sent any weather packets the latest 10 day(s).

<< 25 26 27 28 29 30 31 >>
Time Temp. Humidity Pressure Rain* Wind** Luminosity Snow
1777162333 16.67° C 26% 1001.4 hPa 0 mm - - -
1777161433 16.67° C 27% 1001.4 hPa 0 mm - - -
1777160533 16.67° C 26% 1001.4 hPa 0 mm - - -
1777159839 16.67° C 26% 1001.7 hPa 0 mm - - -
1777158733 16.67° C 26% 1001.7 hPa 0 mm - - -
1777157833 16.67° C 25% 1001.4 hPa 0 mm - - -
1777156932 16.67° C 25% 1001.7 hPa 0 mm - - -
1777156033 16.11° C 25% 1002 hPa 0 mm - - -
1777155132 16.67° C 24% 1002 hPa 0 mm - - -
1777154232 16.67° C 24% 1002 hPa 0 mm - - -
1777153332 16.11° C 26% 1002.4 hPa 0 mm - - -
1777152432 16.11° C 24% 1002.4 hPa 0 mm - - -
1777151532 17.22° C 26% 1002.7 hPa 0 mm - - -
1777150632 16.11° C 29% 1002.7 hPa 0 mm - - -
1777149732 16.11° C 27% 1002.7 hPa 0 mm - - -
1777148832 15.56° C 32% 1002.7 hPa 0 mm - - -
1777147932 16.11° C 38% 1003 hPa 0 mm - - -
1777147032 15° C 38% 1003.4 hPa 0 mm - - -
1777146132 15° C 40% 1003 hPa 0 mm - - -
1777145232 15.56° C 43% 1003.4 hPa 0 mm - - -
1777144332 15° C 43% 1003.7 hPa 0 mm - - -
1777143432 13.89° C 44% 1004.1 hPa 0 mm - - -
1777142532 13.89° C 47% 1004.1 hPa 0 mm - - -
1777141632 13.89° C 47% 1003.7 hPa 0 mm - - -
1777140732 12.78° C 48% 1004.4 hPa 0 mm - - -

* Rain latest hour (hover to see other rain measurements)
** Current wind speed in m/s (hover to see current wind gust speed)